Grantley Adams, Barbados

4:07 AM AST on December 11, 2017 (GMT -0400)
Grantley Adams International

Weather History for TBPB - June, 2013

Change the Weather History Date:

Sunday, June 2, 2013

  Actual Average Record
Temperature  
Mean Temperature 81 °F -  
Max Temperature 86 °F 85 °F 87 °F (1999)
Min Temperature 76 °F 77 °F 76 °F (2013)
Cooling Degree Days 16    
Growing Degree Days 31 (Base 50)    
Moisture  
Dew Point 77 °F    
Average Humidity 87    
Maximum Humidity 100    
Minimum Humidity 72    
Precipitation  
Precipitation 0.04 in - - ()
Sea Level Pressure  
Sea Level Pressure 29.98 in    
Wind  
Wind Speed 18 mph ()    
Max Wind Speed 26 mph    
Max Gust Speed -    
Visibility 7.5 miles    
Events Rain    
Averages and records for this station are not official NWS values.
T = Trace of Precipitation, MM = Missing Value Source: Averaged Metar Reports

Daily Weather History Graph

Daily Weather History Graph

Search for Another Location

Airport or City:

Trip Planner

Search our weather history database for the weather conditions in past years. The results will help you decide how hot, cold, wet, or windy it might be!

Date:

Astronomy

Jun. 02, 2013 Rise Set
Actual Time 5:30 AM AST 6:21 PM AST
Civil Twilight 5:07 AM AST 6:44 PM AST
Nautical Twilight 4:39 AM AST 7:12 PM AST
Astronomical Twilight 4:12 AM AST 7:39 PM AST
Moon 1:02 AM AST (6/2) 1:33 PM AST (6/2)
Length of Visible Light 13h 37m
Length of Day
12h 51m
Waning Crescent, 31% of the Moon is Illuminated
Jun 2
Waning Crescent
Jun 8
New
Jun 16
First Quarter
Jun 23
Full
Jun 30
Last Quarter

Hourly Weather History & Observations

Time (AST) Temp. Heat Index Dew Point Humidity Pressure Visibility Wind Dir Wind Speed Gust Speed Precip Events Conditions
12:00 AM 80.6 °F 87.1 °F 77.0 °F 89% 29.98 in 6.2 mi ESE 20.7 mph - N/A   Mostly Cloudy
1:00 AM 80.6 °F 87.1 °F 77.0 °F 89% 29.95 in 6.2 mi ESE 19.6 mph - N/A   Mostly Cloudy
2:00 AM 77 °F - 77 °F 98% 29.95 in 11 mi ESE 26.5 mph - - Rain Light Rain Showers
2:00 AM 77.0 °F - 77.0 °F 100% 29.95 in 6.2 mi ESE 26.5 mph - N/A Rain Light Rain Showers
3:00 AM 78.8 °F - 75.2 °F 89% 29.95 in 6.2 mi East 17.3 mph - N/A   Mostly Cloudy
4:00 AM 78.8 °F - 77.0 °F 94% 29.95 in 6.2 mi East 17.3 mph - N/A   Mostly Cloudy
5:00 AM 78.8 °F - 78.8 °F 100% 29.95 in 6.2 mi East 13.8 mph - N/A   Mostly Cloudy
6:00 AM 78.8 °F - 77.0 °F 94% 29.98 in 6.2 mi East 17.3 mph - N/A   Mostly Cloudy
7:00 AM 80.6 °F 87.1 °F 77.0 °F 89% 30.01 in 6.2 mi East 19.6 mph - N/A   Mostly Cloudy
8:00 AM 82 °F - 77 °F 82% 30.01 in 14 mi East 18.4 mph - -   Partly Cloudy
8:00 AM 82.4 °F 90.9 °F 77.0 °F 84% 30.01 in 6.2 mi East 18.4 mph - N/A   Mostly Cloudy
9:00 AM 84.2 °F 96.1 °F 78.8 °F 84% 30.01 in 6.2 mi ESE 20.7 mph - N/A   Mostly Cloudy
10:00 AM 84.2 °F 96.1 °F 78.8 °F 84% 30.01 in 6.2 mi East 23.0 mph - N/A   Mostly Cloudy
11:00 AM 80.6 °F 88.1 °F 78.8 °F 94% 30.01 in 5.0 mi ESE 25.3 mph - N/A Rain Rain Showers
11:20 AM 78.8 °F - 75.2 °F 89% 30.01 in 6.2 mi East 17.3 mph - N/A   Mostly Cloudy
12:00 PM 82.4 °F 94.0 °F 80.6 °F 94% 30.01 in 6.2 mi East 17.3 mph - N/A   Mostly Cloudy
1:00 PM 84.2 °F 96.1 °F 78.8 °F 84% 29.98 in 6.2 mi East 20.7 mph - N/A   Mostly Cloudy
2:00 PM 85 °F - 77 °F 72% 29.96 in 14 mi East 19.6 mph - -   Partly Cloudy
2:00 PM 86.0 °F 96.9 °F 77.0 °F 74% 29.95 in 6.2 mi East 19.6 mph - N/A   Mostly Cloudy
3:00 PM 84.2 °F 96.1 °F 78.8 °F 84% 29.95 in 6.2 mi East 21.9 mph - N/A   Mostly Cloudy
4:00 PM 84.2 °F 94.1 °F 77.0 °F 79% 29.95 in 6.2 mi East 23.0 mph - N/A   Mostly Cloudy
5:00 PM 83 °F - 76 °F 74% 29.95 in 14 mi East 21.9 mph - -   Partly Cloudy
5:00 PM 82.4 °F 89.5 °F 75.2 °F 79% 29.95 in 6.2 mi East 21.9 mph - N/A   Mostly Cloudy
6:00 PM 82.4 °F 90.9 °F 77.0 °F 84% 29.95 in 6.2 mi East 20.7 mph - N/A   Mostly Cloudy
7:00 PM 78.8 °F - 78.8 °F 100% 29.98 in 6.2 mi East 23.0 mph - N/A   Mostly Cloudy
8:00 PM 80 °F - 77 °F 87% 29.99 in 11 mi East 18.4 mph - - Rain Light Rain Showers
8:00 PM 80.6 °F 87.1 °F 77.0 °F 89% 29.98 in 6.2 mi East 18.4 mph - N/A Rain Light Rain Showers
9:00 PM 80.6 °F 86.2 °F 75.2 °F 84% 30.01 in 6.2 mi ESE 19.6 mph - N/A   Mostly Cloudy
10:00 PM 80.6 °F 89.3 °F 80.6 °F 100% 30.01 in 6.2 mi ESE 21.9 mph - N/A Rain Light Rain Showers
11:00 PM 80 °F - 76 °F 83% 30.02 in 14 mi ESE 21.9 mph - -   Partly Cloudy
11:00 PM 80.6 °F 86.2 °F 75.2 °F 84% 30.01 in 6.2 mi ESE 21.9 mph - N/A   Mostly Cloudy